| time (UTC) | temp F | wind direction | speed MPH | gust MPH | rain 1hr in | rain 24hr in | rain mn in | humidity % | barometer mb |
| 20260902154516 | 88 | 220 | 1.0 | 11.0 | 0.00 | 0.00 | 0.00 | 62 | 1010.3 |
| 20260902153014 | 87 | 211 | 2.0 | 9.0 | 0.00 | 0.00 | 0.00 | 63 | 1010.1 |
| 20260902151512 | 86 | 98 | 3.0 | 10.0 | 0.00 | 0.00 | 0.00 | 64 | 1010.2 |
| 20260902150009 | 85 | 253 | 3.0 | 9.0 | 0.00 | 0.00 | 0.00 | 65 | 1010.2 |
| 20260902144510 | 84 | 218 | 5.0 | 13.0 | 0.00 | 0.00 | 0.00 | 65 | 1010.2 |
| 20260902143003 | 83 | 181 | 2.0 | 13.0 | 0.00 | 0.00 | 0.00 | 66 | 1010.2 |
| 20260902141503 | 83 | 180 | 3.0 | 8.0 | 0.00 | 0.00 | 0.00 | 66 | 1010.4 |
| 20260902140000 | 82 | 104 | 1.0 | 8.0 | 0.00 | 0.00 | 0.00 | 67 | 1010.4 |
| 20260902134602 | 81 | 111 | 1.0 | 10.0 | 0.00 | 0.00 | 0.00 | 68 | 1010.4 |
| 20260902133101 | 81 | 189 | 2.0 | 7.0 | 0.00 | 0.00 | 0.00 | 67 | 1010.3 |
| 20260902131559 | 80 | 150 | 1.0 | 6.0 | 0.00 | 0.00 | 0.00 | 68 | 1010.3 |
| 20260902130058 | 80 | 147 | 2.0 | 6.0 | 0.00 | 0.00 | 0.00 | 68 | 1010.2 |
| 20260902124603 | 79 | 253 | 1.0 | 5.0 | 0.00 | 0.00 | 0.00 | 68 | 1010.2 |
| 20260902123100 | 79 | 109 | 1.0 | 5.0 | 0.00 | 0.00 | 0.00 | 68 | 1010.1 |
| 20260902121607 | 79 | 241 | 0.0 | 5.0 | 0.00 | 0.00 | 0.00 | 68 | 1009.9 |
| 20260902114610 | 78 | 120 | 1.0 | 5.0 | 0.00 | 0.00 | 0.00 | 69 | 1009.8 |
| 20260902113058 | 78 | 210 | 0.0 | 3.0 | 0.00 | 0.00 | 0.00 | 69 | 1009.7 |
| 20260902111600 | 78 | 245 | 0.0 | 5.0 | 0.00 | 0.00 | 0.00 | 69 | 1009.7 |
| 20260902110057 | 79 | 87 | 0.0 | 2.0 | 0.00 | 0.00 | 0.00 | 68 | 1009.6 |
| 20260902104549 | 79 | 101 | 0.0 | 6.0 | 0.00 | 0.00 | 0.00 | 67 | 1009.7 |
| 20260902103107 | 79 | 122 | 0.0 | 3.0 | 0.00 | 0.00 | 0.00 | 67 | 1009.6 |
| 20260902101547 | 78 | 122 | 0.0 | 4.0 | 0.00 | 0.00 | 0.00 | 68 | 1009.6 |
| 20260902100047 | 78 | 206 | 0.0 | 2.0 | 0.00 | 0.00 | 0.00 | 69 | 1009.5 |
| 20260902094548 | 77 | 207 | 0.0 | 3.0 | 0.00 | 0.00 | 0.00 | 70 | 1009.4 |
| 20260902093044 | 77 | 174 | 1.0 | 3.0 | 0.00 | 0.00 | 0.00 | 71 | 1009.3 |
| 20260902091548 | 78 | 175 | 0.0 | 0.0 | 0.00 | 0.00 | 0.00 | 69 | 1009.1 |
| 20260902090048 | 79 | 175 | 0.0 | 0.0 | 0.00 | 0.00 | 0.00 | 67 | 1009.1 |
| 20260902084535 | 80 | 174 | 0.0 | 0.0 | 0.00 | 0.00 | 0.00 | 65 | 1009.0 |
| 20260902083034 | 80 | 175 | 0.0 | 5.0 | 0.00 | 0.00 | 0.00 | 64 | 1008.8 |
| 20260902081540 | 80 | 154 | 1.0 | 3.0 | 0.00 | 0.00 | 0.00 | 64 | 1008.7 |
| 20260902080033 | 80 | 150 | 0.0 | 4.0 | 0.00 | 0.00 | 0.00 | 65 | 1008.7 |
| 20260902074542 | 79 | 150 | 0.0 | 3.0 | 0.00 | 0.00 | 0.00 | 66 | 1008.7 |
| 20260902073030 | 80 | 149 | 0.0 | 2.0 | 0.00 | 0.00 | 0.00 | 65 | 1008.8 |
| 20260902071527 | 81 | 149 | 0.0 | 0.0 | 0.00 | 0.00 | 0.00 | 63 | 1008.7 |
| 20260902070026 | 81 | 149 | 0.0 | 2.0 | 0.00 | 0.00 | 0.00 | 63 | 1008.7 |
| 20260902064531 | 81 | 149 | 0.0 | 1.0 | 0.00 | 0.00 | 0.00 | 63 | 1008.9 |
| 20260902063024 | 81 | 149 | 0.0 | 0.0 | 0.00 | 0.00 | 0.00 | 64 | 1008.9 |
| 20260902061537 | 81 | 149 | 0.0 | 0.0 | 0.00 | 0.00 | 0.00 | 63 | 1009.0 |
| 20260902060025 | 81 | 149 | 0.0 | 0.0 | 0.00 | 0.00 | 0.00 | 62 | 1008.9 |
| 20260902054534 | 82 | 149 | 0.0 | 0.0 | 0.00 | 0.00 | 0.00 | 61 | 1009.0 |
| 20260902053021 | 82 | 149 | 0.0 | 1.0 | 0.00 | 0.00 | 0.00 | 60 | 1009.0 |
| 20260902051514 | 83 | 149 | 0.0 | 1.0 | 0.00 | 0.00 | 0.00 | 58 | 1009.0 |
| 20260902050016 | 83 | 149 | 0.0 | 3.0 | 0.00 | 0.00 | 0.00 | 58 | 1008.8 |
| 20260902044513 | 83 | 149 | 0.0 | 2.0 | 0.00 | 0.00 | 0.00 | 58 | 1008.7 |
| 20260902043015 | 83 | 149 | 0.0 | 2.0 | 0.00 | 0.00 | 0.00 | 58 | 1008.6 |
| 20260902041514 | 83 | 149 | 1.0 | 5.0 | 0.00 | 0.00 | 0.00 | 58 | 1008.7 |
| 20260902040012 | 83 | 150 | 0.0 | 0.0 | 0.00 | 0.00 | 0.00 | 59 | 1008.7 |
| 20260902034521 | 83 | 150 | 0.0 | 0.0 | 0.00 | 0.00 | 0.00 | 60 | 1008.7 |
| 20260902033011 | 83 | 150 | 0.0 | 0.0 | 0.00 | 0.00 | 0.00 | 61 | 1008.7 |
| 20260902031514 | 84 | 150 | 0.0 | 2.0 | 0.00 | 0.00 | 0.00 | 60 | 1008.6 |
| 20260902030010 | 84 | 150 | 0.0 | 2.0 | 0.00 | 0.00 | 0.00 | 61 | 1008.4 |
| 20260902024510 | 84 | 150 | 0.0 | 2.0 | 0.00 | 0.00 | 0.00 | 60 | 1008.3 |
| 20260902023009 | 83 | 150 | 0.0 | 4.0 | 0.00 | 0.00 | 0.00 | 62 | 1008.1 |
| 20260902021509 | 83 | 150 | 0.0 | 0.0 | 0.00 | 0.00 | 0.00 | 65 | 1008.1 |
| 20260902020009 | 83 | 150 | 0.0 | 0.0 | 0.00 | 0.00 | 0.00 | 67 | 1008.1 |
| 20260902014508 | 83 | 150 | 0.0 | 0.0 | 0.00 | 0.00 | 0.00 | 67 | 1007.9 |
| 20260902013008 | 84 | 150 | 0.0 | 0.0 | 0.00 | 0.00 | 0.00 | 66 | 1007.7 |
| 20260902011511 | 85 | 150 | 0.0 | 0.0 | 0.00 | 0.00 | 0.00 | 66 | 1007.7 |
| 20260902010016 | 87 | 150 | 0.0 | 2.0 | 0.00 | 0.00 | 0.00 | 64 | 1007.6 |
| 20260902004506 | 89 | 151 | 0.0 | 2.0 | 0.00 | 0.00 | 0.00 | 61 | 1007.8 |
| 20260902003006 | 91 | 151 | 0.0 | 2.0 | 0.00 | 0.00 | 0.00 | 56 | 1007.8 |
| 20260902001504 | 94 | 151 | 0.0 | 1.0 | 0.00 | 0.00 | 0.00 | 52 | 1007.9 |
| 20260902000008 | 96 | 151 | 0.0 | 0.0 | 0.00 | 0.00 | 0.00 | 48 | 1007.9 |
| 20260901234501 | 97 | 151 | 0.0 | 3.0 | 0.00 | 0.00 | 0.00 | 45 | 1008.0 |
| 20260901233001 | 98 | 149 | 0.0 | 4.0 | 0.00 | 0.00 | 0.00 | 42 | 1008.1 |
| 20260901231501 | 98 | 147 | 0.0 | 4.0 | 0.00 | 0.00 | 0.00 | 41 | 1008.0 |
| 20260901230001 | 99 | 147 | 1.0 | 5.0 | 0.00 | 0.00 | 0.00 | 39 | 1008.0 |
| 20260901224603 | 99 | 167 | 1.0 | 9.0 | 0.00 | 0.00 | 0.00 | 38 | 1008.0 |
| 20260901223100 | 99 | 215 | 0.0 | 8.0 | 0.00 | 0.00 | 0.00 | 38 | 1008.2 |
| 20260901221559 | 99 | 89 | 1.0 | 8.0 | 0.00 | 0.00 | 0.00 | 37 | 1008.1 |
| 20260901220116 | 99 | 106 | 3.0 | 8.0 | 0.00 | 0.00 | 0.00 | 38 | 1008.0 |
| 20260901214557 | 99 | 191 | 3.0 | 7.0 | 0.00 | 0.00 | 0.00 | 37 | 1008.2 |
| 20260901213058 | 99 | 133 | 3.0 | 9.0 | 0.00 | 0.00 | 0.00 | 37 | 1008.3 |
| 20260901211556 | 100 | 222 | 3.0 | 10.0 | 0.00 | 0.00 | 0.00 | 36 | 1008.5 |
| 20260901210054 | 100 | 201 | 3.0 | 8.0 | 0.00 | 0.00 | 0.00 | 35 | 1008.5 |
| 20260901204551 | 100 | 108 | 1.0 | 8.0 | 0.00 | 0.00 | 0.00 | 38 | 1008.6 |
| 20260901203050 | 99 | 154 | 3.0 | 10.0 | 0.00 | 0.00 | 0.00 | 38 | 1008.9 |
| 20260901201549 | 99 | 127 | 4.0 | 8.0 | 0.00 | 0.00 | 0.00 | 39 | 1009.0 |
| 20260901200050 | 99 | 149 | 3.0 | 8.0 | 0.00 | 0.00 | 0.00 | 40 | 1009.1 |
| 20260901194553 | 99 | 243 | 2.0 | 8.0 | 0.00 | 0.00 | 0.00 | 39 | 1009.3 |
| 20260901193047 | 99 | 102 | 2.0 | 10.0 | 0.00 | 0.00 | 0.00 | 41 | 1009.4 |
| 20260901191541 | 98 | 208 | 2.0 | 9.0 | 0.00 | 0.00 | 0.00 | 41 | 1009.6 |
| 20260901190039 | 98 | 236 | 1.0 | 11.0 | 0.00 | 0.00 | 0.00 | 42 | 1009.6 |
| 20260901184537 | 98 | 205 | 3.0 | 9.0 | 0.00 | 0.00 | 0.00 | 43 | 1009.8 |
| 20260901183034 | 97 | 229 | 3.0 | 8.0 | 0.00 | 0.00 | 0.00 | 44 | 1010.0 |
| 20260901181538 | 97 | 231 | 4.0 | 9.0 | 0.00 | 0.00 | 0.00 | 45 | 1010.2 |
| 20260901180029 | 95 | 265 | 3.0 | 9.0 | 0.00 | 0.00 | 0.00 | 47 | 1010.4 |
| 20260901174526 | 94 | 220 | 4.0 | 10.0 | 0.00 | 0.00 | 0.00 | 49 | 1010.5 |
| 20260901173025 | 94 | 272 | 2.0 | 8.0 | 0.00 | 0.00 | 0.00 | 50 | 1010.7 |
| 20260901171522 | 93 | 213 | 3.0 | 9.0 | 0.00 | 0.00 | 0.00 | 52 | 1010.8 |
| 20260901170052 | 92 | 197 | 6.0 | 12.0 | 0.00 | 0.00 | 0.00 | 51 | 1010.9 |
| 20260901164516 | 91 | 195 | 3.0 | 12.0 | 0.00 | 0.00 | 0.00 | 53 | 1011.0 |
| 20260901163025 | 90 | 256 | 2.0 | 7.0 | 0.00 | 0.00 | 0.00 | 55 | 1011.1 |
| 20260901161510 | 89 | 273 | 2.0 | 10.0 | 0.00 | 0.00 | 0.00 | 56 | 1011.2 |
| 20260901160006 | 88 | 175 | 3.0 | 8.0 | 0.00 | 0.00 | 0.00 | 57 | 1011.2 |